Wind_Speed
32 31 30 29 29 29 28 26 24 22 20 18 18 17 16 16 15 15 14 13 13 12 12 12 12 12 12 12 12 12 13 13 13 12 13 13 13 13 13 13 13 13 14 14
33 33 32 31 30 30 29 28 27 25 23 21 20 18 18 17 16 16 16 15 15 14 14 14 14 14 14 13 14 14 15 14 14 14 15 15 15 15 15 15 15 15 15 16
33 33 34 34 32 31 30 30 28 27 25 24 22 21 20 20 19 18 17 17 16 17 17 17 17 17 16 16 16 16 16 16 16 16 17 16 16 17 16 16 16 17 17 17
33 33 35 33 33 32 31 31 30 29 28 26 25 23 22 21 20 20 20 19 18 19 19 20 19 18 18 18 18 18 18 18 18 18 19 18 18 18 19 18 18 18 18 18
35 34 34 35 34 32 32 32 31 30 29 28 27 26 25 24 22 22 22 22 22 22 22 22 22 20 20 19 19 20 19 19 20 20 20 20 20 20 19 19 20 20 20 21
37 35 34 35 34 32 32 33 32 31 30 29 28 28 28 26 25 25 24 24 25 25 25 25 25 24 23 22 22 22 22 22 22 22 22 22 22 22 22 22 22 22 22 22
38 37 36 36 35 33 33 33 32 31 31 30 30 30 30 29 28 28 27 27 27 28 28 28 28 27 25 25 25 25 25 25 25 24 24 24 24 24 24 25 24 24 24 24
39 37 38 38 36 36 35 34 33 32 32 31 31 31 31 31 30 30 30 30 30 30 30 31 31 30 29 29 28 28 28 29 28 27 27 27 26 26 26 27 27 27 27 27
41 41 41 40 38 37 36 35 35 34 34 33 33 33 33 33 32 32 32 32 32 33 33 33 32 32 32 32 32 31 31 30 30 30 29 29 29 29 29 29 30 30 30 29
41 41 41 40 39 38 37 37 36 36 36 36 35 35 35 35 35 35 34 34 34 34 34 34 34 34 34 35 34 33 33 32 32 32 32 32 32 31 32 32 31 31 31 31
43 42 41 41 41 40 39 38 38 37 37 37 37 36 36 36 36 36 36 35 36 36 35 36 36 36 35 35 35 35 34 35 35 35 35 34 34 34 34 34 34 32 32 32
42 42 43 43 42 41 41 40 39 39 39 38 38 38 37 36 36 36 36 36 37 37 37 37 37 36 35 35 37 37 37 37 37 37 37 37 36 36 36 36 34 35 35 34
41 41 43 43 43 43 42 42 41 41 40 39 39 38 38 37 36 36 36 37 37 38 38 37 37 37 37 38 39 39 39 39 38 38 38 38 38 37 37 36 36 36 35 34
40 40 41 43 42 42 42 42 42 42 41 40 39 39 39 38 36 36 37 37 38 38 38 38 39 39 39 40 40 40 40 40 40 40 40 39 39 39 38 37 36 36 36 35
40 39 39 39 40 40 40 41 40 40 39 38 37 37 37 37 37 37 37 38 38 39 39 40 40 41 41 41 41 41 41 41 41 40 40 40 40 39 38 38 38 38 37 37
37 37 37 37 38 38 39 39 38 38 38 37 37 37 37 37 38 38 38 39 39 40 40 41 41 41 41 42 41 41 40 41 41 41 41 40 40 39 39 40 39 39 38 38
33 34 35 35 36 38 39 39 39 38 38 38 38 38 38 37 38 38 39 39 40 41 41 41 42 41 41 41 41 42 42 41 41 40 40 40 41 41 41 41 40 39 39 38
31 32 32 33 33 34 36 36 36 37 37 37 37 37 37 37 37 38 38 39 39 40 40 41 40 40 41 41 41 41 40 39 39 39 40 40 40 40 40 39 39 39 38 39
28 29 29 30 30 31 32 32 32 33 34 35 35 35 35 35 35 35 35 36 36 37 38 38 38 38 38 38 38 38 38 38 38 38 39 39 39 38 38 37 37 37 38 38
25 26 26 27 27 28 28 29 29 29 30 31 32 32 33 33 33 33 33 33 34 34 34 33 33 34 34 34 34 34 34 35 35 36 36 37 37 37 36 36 37 37 38 37
22 23 23 24 25 26 26 26 27 28 28 29 30 31 31 31 31 32 32 32 32 32 32 31 31 31 31 31 32 32 33 33 33 33 34 34 35 35 34 34 35 35 36 35
20 21 21 22 23 23 24 24 25 25 26 27 28 28 29 29 29 30 30 30 30 30 30 30 29 30 30 30 30 31 31 31 32 32 32 33 33 33 33 33 34 34 35 34
18 19 19 20 21 21 22 22 23 23 23 23 24 25 25 26 26 27 27 27 28 28 28 28 28 28 28 28 29 29 29 30 30 30 30 30 31 31 32 32 33 33 33 32
17 17 17 18 18 19 19 19 20 20 20 20 21 21 22 23 24 25 25 25 24 24 25 26 26 26 25 26 26 26 27 27 28 28 28 29 29 30 30 31 31 31 31 31
14 15 15 16 17 17 17 17 17 18 18 18 19 20 20 21 21 21 21 21 22 23 23 23 23 24 24 24 24 24 25 26 26 27 27 28 28 28 29 29 30 30 30 31
11 11 12 13 14 15 15 15 16 17 17 17 17 17 17 18 18 18 18 19 19 20 20 20 21 21 21 21 22 23 24 24 25 25 26 26 26 27 27 28 28 29 30 30
7 8 9 10 11 12 13 13 14 15 15 15 15 15 15 15 15 15 16 16 17 17 18 19 19 20 20 20 21 21 22 23 23 23 24 24 26 27 27 28 28 28 28 29
Wind_Direction
229 231 236 237 238 239 240 239 243 248 248 246 250 254 255 255 258 262 269 275 280 287 294 301 306 309 312 314 317 318 319 317 317 317 316 316 317 316 314 312 311 311 312 312
232 234 235 235 236 238 240 240 242 246 249 248 248 252 253 255 258 259 263 268 272 278 285 291 295 299 300 303 309 311 311 310 310 311 311 310 311 311 310 309 309 309 309 309
233 235 236 236 236 238 240 242 244 246 249 251 250 252 254 254 255 257 260 264 267 272 278 283 287 291 294 299 302 307 307 305 302 304 304 304 306 307 307 308 307 307 307 307
234 236 236 238 238 238 240 242 244 246 248 250 250 252 252 253 252 253 256 260 264 268 272 278 283 287 290 295 300 303 303 302 297 296 299 298 302 304 306 306 305 303 303 304
234 236 238 239 239 239 241 243 244 246 248 250 251 252 252 252 252 253 255 259 262 266 271 277 281 284 287 290 295 299 300 301 296 294 296 296 300 303 302 302 304 301 299 301
235 235 237 241 239 240 242 244 243 245 247 249 251 251 251 251 252 254 256 258 261 265 270 275 278 281 283 286 290 293 294 296 295 290 290 293 296 298 297 298 299 299 299 299
234 236 237 239 239 239 241 243 243 245 246 248 250 251 252 252 253 254 257 259 260 264 268 271 275 277 279 283 285 287 289 291 291 289 289 289 291 293 294 296 297 297 297 298
233 234 236 238 240 240 242 243 245 245 246 248 249 251 252 253 254 254 257 260 261 263 265 267 271 273 277 280 281 283 284 287 288 288 288 289 290 292 294 296 296 296 296 295
232 234 237 239 241 242 243 244 245 245 246 248 250 252 254 255 256 256 258 260 260 261 263 264 267 269 272 276 278 280 283 286 287 289 288 287 288 290 292 295 296 295 294 293
234 235 237 239 240 242 244 244 246 247 248 249 251 254 256 257 258 257 258 259 259 260 262 265 267 270 270 272 274 277 280 284 286 286 285 284 286 289 290 291 294 294 292 291
235 236 237 238 239 241 243 244 246 247 249 250 253 255 257 258 259 260 260 260 261 263 264 265 267 269 269 269 272 274 278 280 281 282 282 282 284 285 288 289 290 290 290 291
235 236 237 238 239 240 242 243 246 248 249 251 254 256 257 259 260 261 261 262 263 263 263 263 265 268 269 270 272 273 275 278 280 281 280 280 282 284 285 286 287 289 290 289
236 237 238 238 239 240 241 243 246 248 250 252 254 256 258 260 261 262 262 262 263 263 264 265 265 268 270 271 272 273 274 276 278 279 279 281 282 284 285 285 286 287 288 287
235 237 238 239 240 240 241 243 245 248 250 252 254 256 258 260 261 262 262 263 264 264 265 266 268 270 271 272 271 272 273 274 276 278 279 279 281 282 283 284 284 284 285 285
236 238 240 240 240 241 242 243 244 247 249 251 253 254 257 258 259 262 263 264 265 265 266 268 269 270 270 271 272 271 272 273 275 276 277 278 279 280 281 283 283 282 283 285
238 238 240 240 241 241 242 243 244 246 248 250 253 256 257 258 259 261 263 264 265 266 267 269 270 270 270 271 272 273 272 272 274 275 276 277 277 279 280 281 281 281 281 283
240 241 241 240 240 240 242 243 245 247 248 250 253 256 258 260 261 261 262 264 265 266 267 269 269 270 270 271 272 273 273 273 274 274 275 277 278 278 278 278 278 279 279 280
240 240 241 241 242 242 242 243 245 246 248 251 254 256 258 260 263 264 264 264 265 266 268 269 269 270 271 271 272 272 272 272 273 274 275 276 277 276 275 276 276 278 279 278
238 239 239 239 240 242 243 244 245 246 248 251 253 255 258 260 261 262 264 266 267 268 269 269 271 271 271 272 272 271 271 272 273 273 274 274 273 273 274 275 276 276 277 277
238 238 238 239 240 242 242 243 246 248 249 251 253 255 257 258 259 260 262 265 267 268 268 267 268 271 273 272 273 274 273 273 272 272 273 273 272 273 274 275 275 276 278 279
242 241 240 240 241 242 243 244 245 246 248 250 252 254 255 256 258 260 262 264 266 268 269 270 272 273 273 273 274 274 274 274 274 273 272 273 274 274 275 276 277 279 281 281
239 239 238 238 239 240 242 243 244 246 249 250 252 254 254 256 258 260 262 265 266 268 269 271 273 275 275 275 274 273 272 271 272 273 274 275 275 275 276 277 279 281 282 282
235 235 236 236 238 239 241 242 243 245 247 250 254 255 255 257 258 260 262 265 267 268 270 271 272 273 273 274 274 273 271 271 271 273 274 275 276 277 277 278 280 281 281 281
233 235 236 237 238 239 241 243 244 246 249 252 255 257 259 260 261 263 264 265 267 269 271 273 272 272 273 273 274 273 273 274 275 274 275 275 277 278 280 281 281 281 282 283
233 236 237 238 239 241 242 244 244 246 249 254 257 259 260 261 262 264 264 266 267 270 272 273 273 274 275 275 276 277 276 276 276 276 277 278 279 281 282 282 283 283 284 285
227 233 237 236 236 238 241 243 244 246 249 253 256 258 259 261 263 263 265 267 269 271 273 273 273 274 274 275 276 277 277 277 277 277 278 280 281 282 283 284 285 286 287 288
218 222 228 230 230 233 236 239 242 245 248 252 255 258 261 262 262 264 267 269 270 274 276 276 276 275 275 275 276 279 281 280 280 281 282 284 286 287 288 288 288 289 289 288
Height
5876 5879 5882 5885 5888 5891 5894 5898 5901 5903 5904 5905 5906 5907 5908 5908 5908 5909 5909 5909 5908 5907 5906 5905 5903 5902 5900 5899 5897 5896 5894 5893 5891 5889 5888 5886 5885 5883 5881 5880 5878 5876 5874 5873
5868 5871 5874 5878 5881 5884 5887 5890 5893 5896 5898 5899 5901 5902 5903 5903 5904 5905 5905 5905 5904 5904 5903 5902 5900 5899 5898 5896 5894 5893 5891 5890 5888 5887 5885 5884 5882 5880 5878 5877 5875 5873 5871 5869
5861 5864 5866 5870 5874 5877 5880 5883 5886 5889 5892 5893 5895 5896 5897 5898 5899 5900 5900 5900 5900 5899 5899 5898 5897 5896 5894 5893 5891 5890 5888 5887 5885 5884 5882 5880 5879 5877 5875 5873 5872 5870 5868 5866
5853 5856 5859 5865 5867 5870 5873 5875 5878 5881 5883 5886 5888 5890 5891 5892 5893 5894 5895 5895 5895 5894 5894 5893 5892 5891 5890 5889 5888 5886 5884 5882 5881 5880 5878 5877 5875 5873 5871 5870 5868 5866 5864 5862
5845 5848 5852 5855 5858 5862 5865 5868 5871 5873 5876 5878 5881 5883 5884 5885 5887 5888 5889 5889 5889 5889 5888 5888 5887 5886 5886 5885 5884 5882 5880 5879 5877 5875 5874 5872 5871 5869 5867 5865 5864 5862 5860 5858
5836 5840 5844 5847 5850 5854 5858 5860 5863 5865 5868 5871 5873 5875 5877 5878 5880 5881 5882 5883 5883 5883 5883 5882 5882 5881 5880 5880 5879 5877 5876 5874 5873 5871 5869 5867 5866 5864 5862 5861 5859 5857 5855 5854
5826 5830 5835 5837 5841 5846 5850 5852 5855 5857 5860 5862 5864 5867 5869 5870 5872 5873 5874 5875 5876 5876 5876 5876 5875 5874 5874 5874 5873 5872 5870 5869 5867 5865 5864 5862 5861 5859 5857 5856 5853 5852 5850 5848
5817 5822 5827 5828 5832 5836 5840 5843 5846 5849 5851 5854 5856 5858 5860 5862 5863 5865 5866 5867 5868 5868 5868 5868 5867 5867 5866 5866 5866 5865 5863 5862 5860 5859 5858 5856 5855 5853 5851 5849 5848 5845 5843 5842
5807 5812 5814 5818 5822 5826 5830 5833 5836 5839 5842 5845 5847 5849 5851 5852 5854 5855 5857 5858 5858 5859 5859 5859 5859 5859 5858 5858 5858 5857 5855 5854 5853 5851 5850 5850 5848 5847 5845 5843 5840 5838 5836 5834
5796 5800 5805 5809 5812 5816 5820 5823 5826 5829 5832 5835 5837 5839 5841 5843 5844 5846 5847 5848 5848 5849 5849 5850 5850 5850 5849 5849 5849 5848 5847 5846 5845 5844 5843 5842 5840 5839 5837 5835 5833 5830 5828 5826
5785 5790 5794 5798 5802 5806 5809 5813 5816 5819 5822 5824 5827 5829 5831 5832 5834 5835 5836 5837 5838 5839 5840 5840 5840 5840 5840 5839 5839 5839 5838 5837 5836 5835 5834 5833 5831 5830 5828 5826 5824 5822 5820 5817
5774 5779 5783 5787 5791 5795 5799 5803 5806 5809 5811 5814 5816 5818 5820 5822 5824 5825 5826 5827 5827 5828 5829 5829 5830 5830 5830 5830 5829 5829 5828 5828 5827 5825 5824 5823 5822 5820 5818 5817 5814 5813 5811 5809
5764 5768 5772 5776 5780 5784 5788 5792 5795 5798 5801 5803 5805 5807 5809 5811 5813 5814 5815 5816 5817 5818 5818 5819 5819 5820 5820 5820 5819 5818 5818 5817 5816 5815 5814 5812 5811 5810 5808 5807 5805 5803 5801 5799
5753 5757 5761 5765 5769 5773 5777 5781 5784 5787 5789 5792 5794 5797 5799 5800 5802 5803 5805 5806 5806 5807 5808 5808 5808 5808 5808 5808 5807 5807 5806 5806 5805 5804 5802 5801 5800 5799 5798 5796 5795 5793 5791 5789
5742 5746 5750 5754 5758 5762 5766 5769 5772 5775 5778 5781 5783 5786 5788 5789 5791 5792 5793 5794 5795 5796 5796 5796 5796 5796 5796 5796 5795 5795 5794 5794 5793 5792 5791 5790 5789 5787 5786 5785 5784 5782 5780 5778
5732 5736 5740 5743 5747 5751 5755 5758 5760 5764 5767 5770 5773 5775 5777 5778 5780 5781 5782 5783 5784 5784 5784 5784 5784 5784 5784 5783 5783 5782 5782 5782 5781 5780 5779 5778 5777 5776 5775 5773 5772 5770 5769 5767
5723 5726 5730 5733 5737 5740 5744 5747 5750 5753 5757 5760 5762 5764 5766 5767 5769 5769 5770 5771 5772 5772 5772 5772 5772 5772 5771 5771 5770 5770 5769 5769 5769 5768 5767 5766 5765 5764 5762 5761 5759 5758 5757 5755
5714 5718 5721 5724 5727 5730 5733 5736 5740 5743 5746 5748 5751 5753 5755 5756 5757 5758 5759 5760 5760 5761 5761 5760 5760 5760 5759 5759 5758 5757 5757 5757 5756 5755 5755 5754 5753 5751 5750 5749 5747 5746 5745 5743
5706 5709 5712 5715 5718 5721 5724 5727 5730 5733 5736 5738 5740 5742 5744 5745 5746 5747 5748 5749 5749 5749 5749 5748 5748 5747 5747 5746 5746 5745 5745 5745 5744 5743 5742 5741 5740 5739 5738 5737 5736 5734 5733 5731
5699 5702 5705 5707 5710 5713 5716 5719 5721 5724 5726 5728 5730 5732 5733 5735 5736 5737 5738 5738 5739 5738 5738 5737 5737 5736 5736 5735 5735 5734 5734 5733 5732 5731 5731 5730 5729 5727 5726 5725 5724 5723 5721 5719
5692 5695 5697 5700 5703 5705 5708 5710 5713 5715 5717 5719 5721 5722 5723 5724 5726 5726 5727 5728 5728 5727 5727 5726 5726 5725 5725 5724 5724 5723 5722 5722 5721 5720 5719 5718 5717 5716 5715 5714 5713 5712 5710 5708
5686 5689 5691 5693 5696 5698 5701 5703 5705 5707 5709 5710 5712 5713 5714 5715 5716 5716 5717 5718 5717 5717 5717 5716 5716 5715 5715 5714 5713 5712 5711 5711 5710 5709 5708 5708 5706 5705 5704 5704 5702 5701 5699 5697
5681 5683 5685 5687 5690 5692 5694 5696 5698 5700 5701 5703 5704 5705 5706 5706 5707 5707 5708 5708 5708 5707 5707 5707 5706 5706 5705 5704 5703 5702 5702 5701 5700 5699 5698 5697 5696 5695 5694 5693 5692 5690 5689 5687
5676 5678 5680 5682 5684 5686 5688 5690 5692 5693 5695 5696 5697 5697 5698 5699 5699 5699 5699 5699 5699 5699 5699 5698 5698 5697 5697 5696 5694 5693 5692 5692 5691 5690 5689 5688 5687 5686 5684 5683 5681 5680 5678 5676
5672 5674 5676 5678 5679 5681 5683 5685 5686 5688 5689 5690 5690 5691 5691 5692 5692 5692 5692 5692 5692 5692 5691 5691 5690 5689 5689 5687 5686 5685 5684 5683 5682 5681 5680 5679 5678 5676 5675 5673 5671 5670 5668 5666
5668 5670 5671 5673 5675 5677 5678 5680 5681 5682 5683 5684 5684 5685 5685 5685 5686 5686 5686 5685 5685 5685 5684 5683 5683 5682 5681 5680 5679 5677 5676 5675 5674 5673 5671 5670 5669 5667 5665 5664 5662 5660 5658 5656
5666 5667 5669 5670 5671 5673 5675 5676 5677 5678 5679 5679 5680 5680 5680 5680 5680 5680 5680 5679 5679 5678 5678 5677 5676 5675 5674 5673 5672 5671 5669 5668 5666 5665 5663 5662 5660 5659 5657 5655 5653 5651 5649 5646